When you browse on this site, cookies collect data to enhance your experience and personalize the content and advertising you see.
Visit our Privacy Policy to learn more. By continuing to use the site, you agree to this use of cookies and data.
  • In Österreich
  • Länderverzeichnis
  • Für 7 Tage
  • Wassertemperatur
  • Wetterkarte
  • News
  • Widgets
  • user-avatar
    Anmelden

    Stündliche Wetter Weliko Tarnovo

    Heute, 19 Februar, Mittwoch

    Zeit Temperatur Niederschläge Wind Luftdruck Luftfeuchtigkeit
    00:00 +9°C° 0 mm 3 m/S 741 mmHg 83%
    01:00 +9°C° 0 mm 3 m/S 741 mmHg 83%
    02:00 +8°C° 0 mm 3 m/S 741 mmHg 83%
    03:00 +8°C° 0.1 mm 2 m/S 741 mmHg 85%
    04:00 +8°C° 0.1 mm 2 m/S 741 mmHg 87%
    05:00 +8°C° 0.1 mm 1 m/S 741 mmHg 89%
    06:00 +8°C° 0.1 mm 1 m/S 741 mmHg 90%
    07:00 +8°C° 0.1 mm 1 m/S 741 mmHg 91%
    08:00 +8°C° 0.1 mm 1 m/S 741 mmHg 92%
    09:00 +8°C° 0 mm 1 m/S 741 mmHg 90%
    10:00 +9°C° 0 mm 1 m/S 741 mmHg 88%
    11:00 +9°C° 0 mm 1 m/S 741 mmHg 86%
    12:00 +9°C° 0 mm 1 m/S 741 mmHg 84%
    13:00 +9°C° 0 mm 1 m/S 740 mmHg 83%
    14:00 +9°C° 0 mm 1 m/S 740 mmHg 81%
    15:00 +9°C° 0 mm 1 m/S 740 mmHg 82%
    16:00 +8°C° 0 mm 0 m/S 739 mmHg 82%
    17:00 +8°C° 0 mm 0 m/S 739 mmHg 83%
    18:00 +8°C° 0 mm 0 m/S 739 mmHg 84%
    19:00 +8°C° 0 mm 0 m/S 739 mmHg 86%
    20:00 +7°C° 0 mm 0 m/S 739 mmHg 87%
    21:00 +7°C° 0.1 mm 0 m/S 739 mmHg 88%
    22:00 +7°C° 0.1 mm 0 m/S 738 mmHg 89%
    23:00 +7°C° 0.1 mm 0 m/S 738 mmHg 90%

    Morgen, 20 Februar, Donnerstag

    Zeit Temperatur Niederschläge Wind Luftdruck Luftfeuchtigkeit
    00:00 +7°C° 0.3 mm 0 m/S 738 mmHg 91%
    01:00 +7°C° 0.3 mm 0 m/S 738 mmHg 93%
    02:00 +7°C° 0.3 mm 0 m/S 738 mmHg 94%
    03:00 +7°C° 0.4 mm 0 m/S 737 mmHg 95%
    04:00 +8°C° 0.4 mm 1 m/S 737 mmHg 95%
    05:00 +7°C° 0.4 mm 1 m/S 737 mmHg 95%
    06:00 +7°C° 0.6 mm 1 m/S 737 mmHg 95%
    07:00 +7°C° 0.6 mm 1 m/S 737 mmHg 95%
    08:00 +7°C° 0.6 mm 1 m/S 737 mmHg 95%
    09:00 +7°C° 0.2 mm 2 m/S 738 mmHg 91%
    10:00 +7°C° 0.2 mm 2 m/S 738 mmHg 87%
    11:00 +8°C° 0.2 mm 3 m/S 738 mmHg 83%
    12:00 +7°C° 0.2 mm 3 m/S 738 mmHg 83%
    13:00 +6°C° 0.2 mm 4 m/S 738 mmHg 84%
    14:00 +6°C° 0.2 mm 4 m/S 738 mmHg 85%
    15:00 +6°C° 0.4 mm 4 m/S 738 mmHg 87%
    16:00 +5°C° 0.4 mm 4 m/S 738 mmHg 89%
    17:00 +5°C° 0.4 mm 4 m/S 738 mmHg 91%
    18:00 +5°C° 0.4 mm 4 m/S 738 mmHg 92%
    19:00 +5°C° 0.4 mm 4 m/S 738 mmHg 93%
    20:00 +4°C° 0.4 mm 4 m/S 739 mmHg 93%
    21:00 +4°C° 0.4 mm 4 m/S 739 mmHg 94%
    22:00 +4°C° 0.4 mm 3 m/S 739 mmHg 94%
    23:00 +4°C° 0.4 mm 3 m/S 739 mmHg 94%

    übermorgen, 21 Februar, Freitag

    Zeit Temperatur Niederschläge Wind Luftdruck Luftfeuchtigkeit
    00:00 +4°C° 1 mm 3 m/S 740 mmHg 94%
    01:00 +4°C° 1 mm 3 m/S 740 mmHg 94%
    02:00 +4°C° 1 mm 3 m/S 740 mmHg 94%
    03:00 +3°C° 0.6 mm 3 m/S 740 mmHg 93%
    04:00 +3°C° 0.6 mm 3 m/S 740 mmHg 93%
    05:00 +3°C° 0.6 mm 3 m/S 741 mmHg 92%
    06:00 +4°C° 0.3 mm 2 m/S 741 mmHg 91%
    07:00 +4°C° 0.3 mm 2 m/S 741 mmHg 91%
    08:00 +4°C° 0.3 mm 2 m/S 742 mmHg 90%
    15:00 +6°C° 0 mm 2 m/S 742 mmHg 71%
    16:00 +6°C° 0 mm 2 m/S 742 mmHg 71%
    17:00 +6°C° 0 mm 2 m/S 742 mmHg 71%
    18:00 +6°C° 0 mm 2 m/S 743 mmHg 75%
    19:00 +5°C° 0 mm 2 m/S 743 mmHg 79%
    20:00 +5°C° 0 mm 2 m/S 743 mmHg 83%
    21:00 +4°C° 0 mm 2 m/S 743 mmHg 82%
    22:00 +4°C° 0 mm 2 m/S 743 mmHg 81%
    23:00 +4°C° 0 mm 2 m/S 743 mmHg 81%

    22 Februar, Samstag

    Zeit Temperatur Niederschläge Wind Luftdruck Luftfeuchtigkeit
    00:00 +3°C° 0 mm 3 m/S 743 mmHg 78%
    01:00 +2°C° 0 mm 5 m/S 743 mmHg 75%
    02:00 +2°C° 0 mm 6 m/S 743 mmHg 72%
    03:00 +1°C° 0 mm 6 m/S 743 mmHg 71%
    04:00 0°C° 0 mm 5 m/S 743 mmHg 70%
    05:00 0°C° 0 mm 5 m/S 742 mmHg 68%
    06:00 0°C° 0 mm 5 m/S 743 mmHg 71%
    07:00 0°C° 0 mm 5 m/S 743 mmHg 74%
    08:00 -1°C° 0 mm 6 m/S 743 mmHg 76%
    09:00 0°C° 0.4 mm 5 m/S 744 mmHg 82%
    10:00 0°C° 0.4 mm 4 m/S 744 mmHg 87%
    11:00 +1°C° 0.4 mm 3 m/S 745 mmHg 92%
    12:00 +1°C° 0.6 mm 3 m/S 745 mmHg 93%
    13:00 +1°C° 0.6 mm 3 m/S 745 mmHg 94%
    14:00 +1°C° 0.6 mm 3 m/S 745 mmHg 95%
    15:00 +2°C° 0.4 mm 3 m/S 746 mmHg 92%
    16:00 +2°C° 0.4 mm 3 m/S 746 mmHg 89%
    17:00 +4°C° 0.4 mm 2 m/S 746 mmHg 87%
    18:00 +3°C° 0.1 mm 2 m/S 747 mmHg 89%
    19:00 +3°C° 0.1 mm 2 m/S 747 mmHg 91%
    20:00 +2°C° 0.1 mm 2 m/S 748 mmHg 92%
    21:00 +2°C° 0 mm 2 m/S 748 mmHg 93%
    22:00 +2°C° 0 mm 1 m/S 748 mmHg 93%
    23:00 +2°C° 0 mm 1 m/S 748 mmHg 93%

    23 Februar, Sonntag

    Zeit Temperatur Niederschläge Wind Luftdruck Luftfeuchtigkeit
    00:00 +2°C° 0 mm 1 m/S 748 mmHg 91%
    01:00 +2°C° 0 mm 1 m/S 748 mmHg 90%
    02:00 +2°C° 0 mm 1 m/S 748 mmHg 88%
    03:00 +1°C° 0 mm 1 m/S 747 mmHg 86%
    04:00 +1°C° 0 mm 1 m/S 747 mmHg 84%
    05:00 +1°C° 0 mm 1 m/S 746 mmHg 81%
    06:00 +2°C° 0 mm 1 m/S 746 mmHg 78%
    07:00 +2°C° 0 mm 1 m/S 746 mmHg 75%
    08:00 +3°C° 0 mm 1 m/S 746 mmHg 72%
    09:00 +3°C° 0 mm 2 m/S 746 mmHg 63%
    10:00 +5°C° 0 mm 2 m/S 745 mmHg 55%
    11:00 +7°C° 0 mm 2 m/S 745 mmHg 46%
    12:00 +8°C° 0 mm 3 m/S 744 mmHg 44%
    13:00 +9°C° 0 mm 3 m/S 744 mmHg 43%
    14:00 +10°C° 0 mm 4 m/S 743 mmHg 41%
    15:00 +9°C° 0 mm 3 m/S 743 mmHg 45%
    16:00 +9°C° 0 mm 3 m/S 742 mmHg 50%
    17:00 +9°C° 0 mm 3 m/S 742 mmHg 55%
    18:00 +8°C° 0 mm 3 m/S 742 mmHg 55%
    19:00 +8°C° 0 mm 3 m/S 742 mmHg 55%
    20:00 +7°C° 0 mm 3 m/S 742 mmHg 55%
    21:00 +7°C° 0 mm 3 m/S 742 mmHg 57%
    22:00 +7°C° 0 mm 2 m/S 742 mmHg 59%
    23:00 +7°C° 0 mm 2 m/S 742 mmHg 62%

    24 Februar, Montag

    Zeit Temperatur Niederschläge Wind Luftdruck Luftfeuchtigkeit
    00:00 +7°C° 0 mm 2 m/S 741 mmHg 64%
    01:00 +7°C° 0 mm 2 m/S 741 mmHg 66%
    02:00 +7°C° 0 mm 2 m/S 741 mmHg 69%
    03:00 +7°C° 0 mm 2 m/S 740 mmHg 70%
    04:00 +8°C° 0 mm 1 m/S 739 mmHg 71%
    05:00 +8°C° 0 mm 1 m/S 738 mmHg 73%
    06:00 +8°C° 0 mm 1 m/S 737 mmHg 72%
    07:00 +7°C° 0 mm 2 m/S 737 mmHg 72%
    08:00 +8°C° 0 mm 2 m/S 736 mmHg 72%
    09:00 +10°C° 0 mm 2 m/S 736 mmHg 62%
    10:00 +12°C° 0 mm 3 m/S 736 mmHg 52%
    11:00 +15°C° 0 mm 4 m/S 735 mmHg 42%
    12:00 +15°C° 0 mm 6 m/S 735 mmHg 43%
    13:00 +13°C° 0 mm 9 m/S 735 mmHg 44%
    14:00 +13°C° 0 mm 11 m/S 735 mmHg 45%
    15:00 +12°C° 0 mm 11 m/S 736 mmHg 48%
    16:00 +9°C° 0 mm 11 m/S 736 mmHg 51%
    17:00 +8°C° 0 mm 11 m/S 737 mmHg 54%
    18:00 +7°C° 0 mm 10 m/S 738 mmHg 55%
    19:00 +6°C° 0 mm 8 m/S 739 mmHg 55%
    20:00 +5°C° 0 mm 6 m/S 740 mmHg 55%
    21:00 +4°C° 0 mm 6 m/S 741 mmHg 57%
    22:00 +3°C° 0 mm 7 m/S 742 mmHg 59%
    23:00 +3°C° 0 mm 7 m/S 742 mmHg 60%
    Mehr zeigen